Date,TemperatureHighF,TemperatureAvgF,TemperatureLowF,DewpointHighF,DewpointAvgF,DewpointLowF,HumidityHigh,HumidityAvg,HumidityLow,PressureMaxIn,PressureMinIn,WindSpeedMaxMPH,WindSpeedAvgMPH,GustSpeedMaxMPH,PrecipitationSumIn
2013-1-1,47,43,38,47,42,36,98,97,93,30.10,29.96,4,0,7,0.80
2013-1-2,42,39,37,40,36,34,95,89,83,30.19,30.02,3,1,7,0.01
2013-1-3,44,37,27,35,31,24,93,79,57,30.38,30.16,4,1,7,0.00
2013-1-4,45,32,22,31,25,20,97,78,44,30.46,30.35,4,1,7,0.00
2013-1-5,48,35,22,38,28,20,97,78,44,30.42,30.25,4,0,7,0.07
2013-1-6,50,42,37,42,38,31,97,85,62,30.31,30.13,6,1,15,0.02
2013-1-7,47,34,23,35,28,21,96,82,56,30.42,30.30,6,1,9,0.00
2013-1-8,52,37,24,42,33,22,97,85,62,30.41,30.27,3,0,4,0.00
2013-1-9,53,48,41,52,47,40,98,96,92,30.43,30.32,3,0,5,0.12
2013-1-10,59,52,48,58,51,48,98,96,91,30.42,30.09,3,0,5,0.02
2013-1-11,64,62,61,63,61,58,98,95,86,30.11,30.02,3,1,8,0.52
2013-1-12,68,64,62,66,62,59,99,95,87,30.07,29.93,1,0,3,0.02
2013-1-13,64,61,49,63,60,46,98,95,88,30.04,29.89,4,0,10,1.49
2013-1-14,48,42,38,46,41,37,97,95,91,30.26,30.04,4,1,7,1.40
2013-1-15,43,41,38,43,41,37,98,98,96,30.17,29.97,3,1,5,1.53
2013-1-16,47,44,41,46,43,40,99,97,92,30.06,29.91,3,0,6,0.11
2013-1-17,43,40,35,42,37,29,98,88,75,30.34,29.80,9,4,14,0.30
2013-1-18,48,35,25,36,28,17,98,80,31,30.55,30.34,4,0,5,0.01
2013-1-19,53,36,23,40,29,21,98,80,47,30.44,30.20,3,0,5,0.00
2013-1-20,58,40,27,45,33,26,98,80,48,30.21,30.10,4,0,8,0.01
2013-1-21,48,35,25,31,22,15,97,64,31,30.25,30.10,6,1,12,0.00
2013-1-22,38,30,23,18,11,4,73,46,25,30.39,30.23,5,1,8,0.00
2013-1-23,49,36,30,32,21,13,90,56,39,30.39,30.14,3,0,7,0.00
2013-1-24,45,36,25,38,22,10,93,60,31,30.39,30.16,8,2,11,0.00
2013-1-25,35,32,26,33,27,13,96,80,46,30.37,30.12,4,1,8,0.16
2013-1-26,47,37,29,38,33,27,98,87,65,30.34,30.19,3,0,5,0.00
2013-1-27,48,40,28,39,34,26,97,80,65,30.44,30.31,3,0,6,0.00
2013-1-28,58,50,45,50,42,34,88,74,65,30.35,30.20,3,1,7,0.00
2013-1-29,55,49,40,54,48,39,97,95,86,30.22,29.83,1,0,1,0.01
2013-1-30,65,54,40,63,52,34,99,93,80,29.83,29.50,8,2,14,1.85
2013-1-31,47,38,32,34,28,25,88,68,43,30.09,29.78,6,2,9,0.00